Location: La Silve
(44.2414°N, 5.8889°E)
Time: 08:37:30
(UTC+00:00)

Cosmos 546 - Pass Details

Date: 01 December 2020
Orbit: 494 x 514 km, 50.6° (Epoch: 25 January)

Event Time Altitude Azimuth Distance (km) Brightness Sun altitude
Rises 17:37:38 0° 239° (WSW) 2,564 9.7 -17.2°
Reaches altitude 10° 17:39:48 10° 239° (WSW) 1,686 8.4 -17.5°
Maximum altitude 17:43:37 88° 152° (SSE) 501 4.5 -18.2°
Enters shadow 17:44:35 49° 63° (ENE) 647 4.7 -18.4°
